User: anonymous   Login
Location: Dover
(39.1580°N, 75.5250°W)
Time: 00:07:04
(UTC-04:00)
Language:

Cosmos 1437 Rocket - Orbit

View from above orbital plane
View from above orbital plane
View from above satellite
View from above satellite

Ground track
Ground track

The orbit data is extracted from the following two-line orbital elements,

1 13771U 83003B   18170.44467477  .00000901  00000-0  52782-4 0  9991
2 13771  81.1575 299.6663 0039912 228.8703 130.9076 15.10146462929212
Epoch (UTC): 19 June 2018 10:40:19
Eccentricity: 0.0039912
inclination: 81.1575°
perigee height: 508 km
apogee height: 563 km
right ascension of ascending node: 299.6663°
argument of perigee: 228.8703°
revolutions per day: 15.10146462
mean anomaly at epoch: 130.9076°
orbit number at epoch: 92921

The dashed part of the orbit path shows where the satellite is in the earth's shadow,  

DLR